Sisseton, SD

7:03 PM CST on January 21, 2018 (GMT -0600)
Sisseton

Weather History for K8D3 - January, 2015

Change the Weather History Date:

Sunday, January 11, 2015

  Actual Average Record
Temperature  
Mean Temperature 6 °F 13 °F  
Max Temperature 11 °F 23 °F 53 °F (1958)
Min Temperature 1 °F 3 °F -31 °F (1977)
Degree Days  
Heating Degree Days 59 52  
Month to date heating degree days 638 572  
Since 1 July heating degree days 3948 3911  
Cooling Degree Days 0 0  
Month to date cooling degree days 0 0  
Year to date cooling degree days 0 0  
Moisture  
Dew Point -1 °F    
Average Humidity 80    
Maximum Humidity 91    
Minimum Humidity 68    
Precipitation  
Precipitation 0.01 in 0.01 in 0.54 in (1995)
Month to date precipitation 0.15 0.17  
Year to date precipitation 0.15 0.17  
Snow  
Snow T in - - ()
Month to date snowfall 1.0  
Since 1 July snowfall 14.1  
Snow Depth 3.00 in    
Sea Level Pressure  
Sea Level Pressure 30.43 in    
Wind  
Wind Speed 6 mph (North)    
Max Wind Speed 18 mph    
Max Gust Speed 23 mph    
T = Trace of Precipitation, MM = Missing Value Source: NWS Daily Summary

Daily Weather History Graph

Daily Weather History Graph

Search for Another Location

Airport or City:

Trip Planner

Search our weather history database for the weather conditions in past years. The results will help you decide how hot, cold, wet, or windy it might be!

Date:

Astronomy

Jan. 11, 2015 Rise Set
Actual Time 8:06 AM CST 5:05 PM CST
Civil Twilight 7:33 AM CST 5:38 PM CST
Nautical Twilight 6:56 AM CST 6:15 PM CST
Astronomical Twilight 6:20 AM CST 6:51 PM CST
Moon 11:50 PM CST (1/11) 11:03 AM CST (1/11)
Length of Visible Light 10h 05m
Length of Day
8h 58m
Waning Gibbous, 66% of the Moon is Illuminated
Jan 11
Waning Gibbous
Jan 13
Last Quarter
Jan 20
New
Jan 26
First Quarter
Feb 3
Full

Hourly Weather History & Observations

Time (CST) Temp. Windchill Dew Point Humidity Pressure Visibility Wind Dir Wind Speed Gust Speed Precip Events Conditions
12:56 AM 3.9 °F -8.2 °F -5.1 °F 66% 30.30 in - NNE 6.9 mph - N/A   Unknown
1:56 AM 3.9 °F -6.9 °F -4.0 °F 70% 30.31 in - NNE 5.8 mph - N/A   Unknown
2:56 AM 3.0 °F -11.5 °F -5.1 °F 69% 30.32 in - NNE 9.2 mph - N/A   Unknown
3:56 AM 3.0 °F -6.4 °F -5.1 °F 69% 30.33 in - North 4.6 mph - N/A   Unknown
4:56 AM 3.0 °F - -5.1 °F 69% 30.33 in - Calm Calm - N/A   Unknown
5:56 AM 3.0 °F - -5.1 °F 69% 30.32 in - Calm Calm - N/A   Unknown
6:56 AM 3.9 °F -6.9 °F -5.1 °F 66% 30.33 in - NE 5.8 mph - N/A   Unknown
8:56 AM 3.9 °F - -4.0 °F 70% 30.37 in - Calm Calm - N/A   Unknown
9:56 AM 5.0 °F -2.1 °F -4.0 °F 66% 30.39 in - North 3.5 mph - N/A   Unknown
10:56 AM 6.1 °F -0.9 °F -0.9 °F 73% 30.42 in - North 3.5 mph - N/A   Unknown
11:56 AM 6.1 °F -0.9 °F 1.0 °F 80% 30.42 in - WNW 3.5 mph - N/A   Unknown
12:56 PM 8.1 °F - 3.0 °F 80% 30.40 in - Calm Calm - 0.01 in   Unknown
1:56 PM 10.0 °F 0.4 °F 3.9 °F 76% 30.40 in - North 5.8 mph - N/A   Unknown
2:56 PM 10.9 °F -0.8 °F 5.0 °F 77% 30.41 in - North 8.1 mph - N/A   Unknown
3:56 PM 10.9 °F 1.4 °F 5.0 °F 77% 30.43 in - North 5.8 mph - N/A   Unknown
4:56 PM 7.0 °F 0.1 °F 3.0 °F 84% 30.46 in - North 3.5 mph - N/A   Unknown
5:56 PM 3.0 °F -9.3 °F 1.0 °F 91% 30.49 in - NW 6.9 mph - N/A   Unknown
6:56 PM 3.0 °F -9.3 °F -2.0 °F 80% 30.51 in - WNW 6.9 mph - N/A   Unknown
7:56 PM 8.1 °F -8.4 °F 1.9 °F 76% 30.52 in - NW 13.8 mph - N/A   Unknown
8:56 PM 7.0 °F -8.3 °F 1.0 °F 77% 30.54 in - NW 11.5 mph - N/A   Unknown
9:56 PM 5.0 °F -11.6 °F -0.9 °F 76% 30.57 in - North 12.7 mph - N/A   Unknown
10:56 PM 3.0 °F -13.3 °F -4.0 °F 73% 30.61 in - North 11.5 mph - N/A   Unknown
11:56 PM 1.9 °F -17.5 °F -6.0 °F 69% 30.63 in - North 16.1 mph - N/A   Unknown